This demonstration page uses our WeatherBlox Daily Observations layout. Learn more.

Left ArrowRight Arrow

40.97296, -117.73568

Hourly Observations for December 8, 2022

Temp ( °F °C ) Dew Point ( °F °C ) Humidity (%) Winds ( mph kmh ) Pressure ( in mb ) Visibility ( mi km ) Precip ( " mm )
12:56 am 00:56 Clear 27 -2.8 21 -6.1 78 78 Calm 30.24 1024 10 16 0.00 0.00
1:56 am 01:56 Clear 20 -6.7 16 -8.9 84 84 Calm 30.26 1025 10 16 0.00 0.00
2:56 am 02:56 Clear 21 -6.1 17 -8.3 84 84 Calm 30.26 1025 10 16 0.00 0.00
3:56 am 03:56 Clear 18 -7.8 14 -10 84 84 E 3 6 30.27 1025 10 16 0.00 0.00
4:56 am 04:56 Clear 15 -9.4 12 -11.1 87 87 Calm 30.31 1027 10 16 0.00 0.00
5:56 am 05:56 Clear 16 -8.9 11 -11.7 80 80 Calm 30.32 1027 10 16 0.00 0.00
6:56 am 06:56 Clear 11 -11.7 8 -13.3 88 88 S 3 6 30.33 1027 10 16 0.00 0.00
7:56 am 07:56 Sunny 18 -7.8 13 -10.6 80 80 WNW 5 7 30.33 1027 10 16 0.00 0.00
8:56 am 08:56 Sunny 27 -2.8 22 -5.6 81 81 SE 3 6 30.30 1026 10 16 0.00 0.00
9:56 am 09:56 Sunny 32 0 25 -3.9 75 75 Calm 30.28 1025 10 16 0.00 0.00
10:56 am 10:56 Sunny 38 3.3 26 -3.3 62 62 VRB 3 6 30.24 1024 10 16 0.00 0.00
11:56 am 11:56 Sunny 40 4.4 26 -3.3 57 57 SSW 7 11 30.19 1022 10 16 0.00 0.00
12:56 pm 12:56 Sunny 41 5 26 -3.3 55 55 WSW 5 7 30.16 1022 10 16 0.00 0.00
1:56 pm 13:56 Sunny 42 5.6 26 -3.3 53 53 Calm 30.15 1021 10 16 0.00 0.00
2:56 pm 14:56 Sunny 43 6.1 24 -4.4 47 47 SSE 10 17 30.14 1021 10 16 0.00 0.00
3:56 pm 15:56 Sunny 38 3.3 25 -3.9 59 59 Calm 30.15 1021 10 16 0.00 0.00
4:56 pm 16:56 Clear 36 2.2 25 -3.9 64 64 WSW 3 6 30.16 1021 10 16 0.00 0.00
5:56 pm 17:56 Mostly Cloudy 35 1.7 24 -4.4 64 64 SW 3 6 30.14 1021 10 16 0.00 0.00
6:56 pm 18:56 Cloudy 35 1.7 25 -3.9 66 66 Calm 30.14 1021 10 16 0.00 0.00
7:56 pm 19:56 Cloudy 35 1.7 25 -3.9 66 66 ESE 5 7 30.08 1019 10 16 0.00 0.00
8:56 pm 20:56 Cloudy 38 3.3 24 -4.4 57 57 S 15 24 30.02 1017 10 16 0.00 0.00
9:56 pm 21:56 Cloudy 37 2.8 24 -4.4 59 59 SSW 14 22 30.02 1017 10 16 0.00 0.00
10:56 pm 22:56 Cloudy 36 2.2 25 -3.9 64 64 SSW 10 17 30.00 1016 10 16 0.00 0.00
11:56 pm 23:56 Cloudy 37 2.8 24 -4.4 59 59 S 5 7 29.98 1015 10 16 0.00 0.00

Powered by AerisWeather